FW1003 Weather Reports


Display with metric or nautical units.
time (UTC)temp
F
wind
direction
speed
MPH
gust
MPH
rain 1hr
in
rain 24hr
in
rain mn
in
humidity
%
barometer
mb
20260905004501 75 53 0.0 0.0 0.00 0.00 0.00 74 1012.5
20260905003101 75 52 0.0 0.0 0.00 0.00 0.00 74 1012.4
20260905001559 76 52 0.0 0.0 0.00 0.00 0.00 73 1012.4
20260905000058 76 52 0.0 0.0 0.00 0.00 0.00 73 1012.4
20260904234557 76 52 0.0 0.0 0.00 0.00 0.00 73 1012.3
20260904233103 76 52 0.0 0.0 0.00 0.00 0.00 73 1012.3
20260904231554 76 52 0.0 0.0 0.00 0.00 0.00 72 1012.3
20260904230054 76 52 0.0 0.0 0.00 0.00 0.00 72 1012.4
20260904224552 76 52 0.0 0.0 0.00 0.00 0.00 71 1012.4
20260904223050 76 52 0.0 0.0 0.00 0.00 0.00 71 1012.6
20260904221551 77 56 0.0 0.0 0.00 0.00 0.00 71 1012.6
20260904220048 77 52 0.0 0.0 0.00 0.00 0.00 71 1012.6
20260904214548 77 52 0.0 0.0 0.00 0.00 0.00 71 1012.7
20260904213046 77 53 0.0 0.0 0.00 0.00 0.00 71 1012.7
20260904211544 77 53 0.0 0.0 0.00 0.00 0.00 71 1012.7
20260904210046 77 52 0.0 0.0 0.00 0.00 0.00 71 1012.5
20260904204543 78 53 0.0 0.0 0.00 0.00 0.00 70 1012.7
20260904203045 78 53 0.0 0.0 0.00 0.00 0.00 70 1012.7
20260904201540 78 53 0.0 2.0 0.00 0.00 0.00 71 1012.7
20260904200045 79 52 0.0 2.0 0.00 0.00 0.00 71 1012.6
20260904194542 79 53 0.0 0.0 0.00 0.00 0.00 70 1012.6
20260904193045 79 52 0.0 1.0 0.00 0.00 0.00 70 1012.6
20260904191538 79 52 0.0 2.0 0.00 0.00 0.00 70 1012.7
20260904190037 79 53 0.0 0.0 0.00 0.00 0.00 71 1012.6
20260904184553 79 52 0.0 0.0 0.00 0.00 0.00 70 1012.6
20260904183037 80 52 0.0 0.0 0.00 0.00 0.00 69 1012.7
20260904181535 80 52 0.0 0.0 0.00 0.00 0.00 68 1012.7
20260904180041 81 52 0.0 0.0 0.00 0.00 0.00 68 1012.6
20260904174538 81 52 0.0 0.0 0.00 0.00 0.00 67 1012.5
20260904173035 81 52 0.0 0.0 0.00 0.00 0.00 66 1012.3
20260904171530 82 52 0.0 0.0 0.00 0.00 0.00 66 1012.2
20260904170029 83 52 0.0 0.0 0.00 0.00 0.00 64 1012.0
20260904164529 84 52 0.0 1.0 0.00 0.00 0.00 63 1011.8
20260904163030 84 52 0.0 0.0 0.00 0.00 0.00 63 1011.4
20260904161527 85 52 0.0 2.0 0.00 0.00 0.00 62 1011.3
20260904160037 86 53 0.0 2.0 0.00 0.00 0.00 62 1011.2
20260904154527 86 58 1.0 3.0 0.00 0.00 0.00 61 1011.2
20260904153028 86 57 0.0 4.0 0.00 0.00 0.00 61 1011.1
20260904151525 87 57 0.0 3.0 0.00 0.00 0.00 60 1011.0
20260904150024 87 74 1.0 4.0 0.00 0.00 0.00 60 1011.1
20260904144527 88 355 1.0 5.0 0.00 0.00 0.00 60 1011.2
20260904143023 88 115 0.0 6.0 0.00 0.00 0.00 59 1011.2
20260904141522 89 50 1.0 4.0 0.00 0.00 0.00 57 1011.0
20260904140021 90 185 1.0 4.0 0.00 0.00 0.00 57 1011.1
20260904134522 90 360 2.0 11.0 0.00 0.00 0.00 57 1011.0
20260904133019 92 180 2.0 8.0 0.00 0.00 0.00 54 1011.0
20260904131517 92 340 1.0 8.0 0.00 0.00 0.00 54 1011.1
20260904130120 91 217 2.0 8.0 0.00 0.00 0.00 55 1011.0
20260904124517 92 113 2.0 4.0 0.00 0.00 0.00 53 1011.0
20260904123016 93 143 2.0 7.0 0.00 0.00 0.00 53 1011.0
20260904121519 93 360 2.0 7.0 0.00 0.00 0.00 53 1011.2
20260904120017 93 102 2.0 8.0 0.00 0.00 0.00 53 1011.0
20260904114532 93 209 2.0 6.0 0.00 0.00 0.00 51 1011.0
20260904113012 93 144 2.0 7.0 0.00 0.00 0.00 52 1011.1
20260904111510 93 360 1.0 6.0 0.00 0.00 0.00 53 1011.0
20260904110021 93 173 2.0 7.0 0.00 0.00 0.00 52 1011.1
20260904104509 92 184 1.0 7.0 0.00 0.00 0.00 53 1011.1
20260904103010 93 166 3.0 9.0 0.00 0.00 0.00 52 1011.2
20260904101514 92 94 1.0 6.0 0.00 0.00 0.00 52 1011.4
20260904100006 93 155 3.0 8.0 0.00 0.00 0.00 53 1011.4
20260904094505 92 137 2.0 10.0 0.00 0.00 0.00 54 1011.4
20260904093005 92 142 3.0 7.0 0.00 0.00 0.00 53 1011.6
20260904091502 92 227 2.0 7.0 0.00 0.00 0.00 52 1011.6
20260904090058 92 216 3.0 7.0 0.00 0.00 0.00 52 1011.7
20260904084558 91 165 3.0 7.0 0.00 0.00 0.00 54 1011.6
20260904083057 90 173 2.0 8.0 0.00 0.00 0.00 54 1011.5
20260904081552 90 167 2.0 9.0 0.00 0.00 0.00 55 1011.8
20260904080051 89 118 3.0 8.0 0.00 0.00 0.00 56 1011.9
20260904074605 90 181 2.0 7.0 0.00 0.00 0.00 57 1011.9
20260904073048 90 360 3.0 8.0 0.00 0.00 0.00 54 1011.9
20260904071544 90 328 2.0 6.0 0.00 0.00 0.00 56 1011.9
20260904070041 89 155 3.0 9.0 0.00 0.00 0.00 57 1011.9
20260904064539 88 211 3.0 7.0 0.00 0.00 0.00 58 1011.8
20260904063049 88 220 1.0 7.0 0.00 0.00 0.00 59 1011.6
20260904061535 88 177 3.0 6.0 0.00 0.00 0.00 59 1011.6
20260904060039 87 195 3.0 7.0 0.00 0.00 0.00 61 1011.3
20260904054527 87 162 2.0 7.0 0.00 0.00 0.00 62 1011.4
20260904053030 86 136 1.0 6.0 0.00 0.00 0.00 64 1011.2
20260904051517 84 125 1.0 6.0 0.00 0.00 0.00 66 1011.2
20260904050013 83 121 2.0 4.0 0.00 0.00 0.00 69 1011.3
20260904044519 81 128 1.0 4.0 0.00 0.00 0.00 74 1011.2
20260904043006 78 302 0.0 0.0 0.00 0.00 0.00 76 1011.2
20260904041500 76 301 0.0 0.0 0.00 0.00 0.00 76 1011.2
20260904040058 76 301 0.0 0.0 0.00 0.00 0.00 76 1011.1
20260904034604 76 301 0.0 0.0 0.00 0.00 0.00 76 1011.0
20260904033052 76 301 0.0 0.0 0.00 0.00 0.00 76 1010.6
20260904031547 75 301 0.0 0.0 0.00 0.00 0.00 76 1010.6
20260904030046 75 301 0.0 0.0 0.00 0.00 0.00 76 1010.7
20260904024546 75 301 0.0 0.0 0.00 0.00 0.00 76 1010.7
20260904023045 75 301 0.0 0.0 0.00 0.00 0.00 75 1010.7
20260904021548 75 301 0.0 0.0 0.00 0.00 0.00 74 1010.6
20260904020043 75 301 0.0 0.0 0.00 0.00 0.00 74 1010.5
20260904014545 75 301 0.0 0.0 0.00 0.00 0.00 74 1010.5
20260904013040 76 301 0.0 0.0 0.00 0.00 0.00 74 1010.5
20260904011542 76 301 0.0 0.0 0.00 0.00 0.00 73 1010.5
20260904010050 76 301 0.0 0.0 0.00 0.00 0.00 74 1010.5